This is the latest recevied weather packets stored in our database for station/object DO7CRZ-10. If no packets are shown the sender has not sent any weather packets the latest 10 day(s).
| Time | Temp. | Humidity | Pressure | Rain* | Wind** | Luminosity | Snow |
|---|---|---|---|---|---|---|---|
| 1777436871 | 3.89° C | 42% | 1025 hPa | - | - | - | - |
| 1777435125 | 2.78° C | 43% | 1025 hPa | - | - | - | - |
| 1777433380 | 2.22° C | 42% | 1025 hPa | - | - | - | - |
| 1777431634 | 2.78° C | 40% | 1025 hPa | - | - | - | - |
| 1777429888 | 2.78° C | 42% | 1025 hPa | - | - | - | - |
| 1777428142 | 2.78° C | 41% | 1025 hPa | - | - | - | - |
| 1777426396 | 3.89° C | 40% | 1024 hPa | - | - | - | - |
| 1777424650 | 3.33° C | 41% | 1024 hPa | - | - | - | - |
| 1777422905 | 4.44° C | 39% | 1024 hPa | - | - | - | - |
| 1777421159 | 4.44° C | 38% | 1024 hPa | - | - | - | - |
| 1777419413 | 5° C | 38% | 1024 hPa | - | - | - | - |
| 1777417667 | 5.56° C | 37% | 1024 hPa | - | - | - | - |
| 1777415921 | 6.67° C | 37% | 1024 hPa | - | - | - | - |
| 1777414175 | 7.22° C | 36% | 1024 hPa | - | - | - | - |
| 1777412430 | 7.78° C | 36% | 1023 hPa | - | - | - | - |
| 1777410684 | 7.78° C | 36% | 1023 hPa | - | - | - | - |
| 1777408938 | 8.33° C | 36% | 1023 hPa | - | - | - | - |
| 1777407192 | 8.89° C | 35% | 1023 hPa | - | - | - | - |
| 1777405446 | 9.44° C | 35% | 1023 hPa | - | - | - | - |
| 1777403700 | 10° C | 34% | 1023 hPa | - | - | - | - |
| 1777401955 | 10.56° C | 34% | 1023 hPa | - | - | - | - |
| 1777400209 | 11.67° C | 31% | 1022 hPa | - | - | - | - |
| 1777398463 | 13.33° C | 30% | 1022 hPa | - | - | - | - |
| 1777396717 | 13.89° C | 29% | 1022 hPa | - | - | - | - |
| 1777394971 | 15° C | 29% | 1021 hPa | - | - | - | - |
* Rain since midnight (hover to see other rain measurements)
** Current wind speed in m/s (hover to see current wind gust speed)